Change the Weather History Date:

Tuesday, July 23, 2013

  Actual Average Record
Temperature  
Mean Temperature 88 °F -  
Max Temperature 104 °F 99 °F - ()
Min Temperature 73 °F 69 °F - ()
Cooling Degree Days 24    
Growing Degree Days 38 (Base 50)    
Moisture  
Dew Point 30 °F    
Average Humidity 12    
Maximum Humidity 24    
Minimum Humidity 4    
Precipitation  
Precipitation 0.00 in 0.01 in - ()
Sea Level Pressure  
Sea Level Pressure 30.02 in    
Wind  
Wind Speed 5 mph ()    
Max Wind Speed 23 mph    
Max Gust Speed 23 mph    
Visibility 7.0 miles    
Events      
T = Trace of Precipitation, MM = Missing Value Source: Averaged Metar Reports

Daily Weather History Graph

Daily Weather History Graph

Search for Another Location

Airport or City:

Trip Planner

Search our weather history database for the weather conditions in past years. The results will help you decide how hot, cold, wet, or windy it might be!

Date:

Astronomy

Jul. 23, 2013 Rise Set
Actual Time 5:39 AM WET 7:28 PM WET
Civil Twilight 5:12 AM WET 7:55 PM WET
Nautical Twilight 4:40 AM WET 8:27 PM WET
Astronomical Twilight 4:06 AM WET 9:01 PM WET
Moon 7:57 PM WET (7/23) 6:24 AM WET (7/23)
Length of Visible Light 14h 42m
Length of Day
13h 49m
Full, 99% of the Moon is Illuminated
Jul 23
Full
Jul 29
Last Quarter
Aug 6
New
Aug 14
First Quarter
Aug 21
Full

Hourly Weather History & Observations

Time (WET) Temp. Dew Point Humidity Pressure Visibility Wind Dir Wind Speed Gust Speed Precip Events Conditions
12:00 AM 86.0 °F 39.2 °F 19% 30.04 in 6.2 mi WSW 8.1 mph - N/A   Partly Cloudy
1:00 AM 80.6 °F 35.6 °F 20% 30.01 in - Variable 2.3 mph - N/A   Clear
2:00 AM 78.8 °F 35.6 °F 21% 30.01 in - WSW 4.6 mph - N/A   Clear
3:00 AM 78 °F 36 °F 12%  in 12 mi WNW 2.3 mph - -  
3:00 AM 77.0 °F 35.6 °F 22% 30.01 in - Variable 2.3 mph - N/A   Clear
4:00 AM 77.0 °F 32.0 °F 19% 30.01 in - WNW 4.6 mph - N/A   Clear
5:00 AM 75.2 °F 35.6 °F 24% 30.01 in - North - - N/A   Clear
6:00 AM 75 °F 31 °F 11%  in 6 mi Calm Calm - -   Scattered Clouds
6:00 AM 75.2 °F 32.0 °F 21% 30.04 in - Calm Calm - N/A   Clear
7:00 AM 73.4 °F 32.0 °F 22% 30.06 in - Calm Calm - N/A   Clear
8:00 AM 82.4 °F 37.4 °F 20% 30.06 in - Variable 2.3 mph - N/A   Clear
9:00 AM 86 °F 31 °F 7%  in 12 mi WNW 1.2 mph - -  
9:00 AM 86.0 °F 32.0 °F 14% 30.06 in - Variable 1.2 mph - N/A   Clear
10:00 AM 91.4 °F 32.0 °F 12% 30.06 in - Calm Calm - N/A   Clear
11:00 AM 95.0 °F 35.6 °F 12% 30.06 in - East 4.6 mph - N/A   Clear
12:00 PM 98 °F 29 °F 4%  in 6 mi East 3.5 mph - -  
12:00 PM 96.8 °F 30.2 °F 10% 30.04 in - Variable 3.5 mph - N/A   Clear
1:00 PM 100.4 °F 24.8 °F 7% 30.01 in 6.2 mi Variable 3.5 mph - N/A   Partly Cloudy
2:00 PM 104.0 °F 23.0 °F 6% 30.01 in 6.2 mi SSW 11.5 mph 23.0 mph N/A   Partly Cloudy
3:00 PM 103 °F 23 °F 4%  in 6 mi SW 8.1 mph - -   Scattered Clouds
3:00 PM 102.2 °F 23.0 °F 6% 29.98 in 6.2 mi SW 8.1 mph - N/A   Partly Cloudy
4:00 PM 104.0 °F 23.0 °F 6% 29.98 in 6.2 mi SW 15.0 mph - N/A   Partly Cloudy
5:00 PM 102.2 °F 23.0 °F 6% 29.95 in 6.2 mi WSW 9.2 mph - N/A   Partly Cloudy
6:00 PM 101 °F 22 °F 4%  in 6 mi WSW 23.0 mph - -   Scattered Clouds
6:00 PM 100.4 °F 23.0 °F 6% 29.95 in 6.2 mi WSW 23.0 mph - N/A   Partly Cloudy
7:00 PM 98.6 °F 23.0 °F 7% 29.98 in 6.2 mi West 23.0 mph - N/A   Partly Cloudy
8:00 PM 93.2 °F 32.0 °F 11% 30.01 in 6.2 mi WNW 18.4 mph - N/A   Partly Cloudy
9:00 PM 88 °F 31 °F 6%  in 9 mi WNW 10.4 mph - -  
9:00 PM 87.8 °F 30.2 °F 13% 30.04 in - WNW 10.4 mph - N/A   Clear
10:00 PM 87.8 °F 32.0 °F 14% 30.06 in - West 6.9 mph - N/A   Clear
11:00 PM 86.0 °F 33.8 °F 15% 30.06 in - Variable 2.3 mph - N/A   Clear